#timestamp,LO_Frequency,Hit,StdDev 
1595696415.7,286046998.6,N
1595696435.5,286046999.4,N
1595696455.3,286046996.5,N
1595696475.2,286046999.5,N
1595696495.0,286046998.4,N
1595696495.9,286046998.4,N
1595696515.8,286047000.9,N
1595696535.6,286047000.3,N
1595696555.4,286046998.2,N
1595696575.3,286046998.2,N
1595696595.1,286046996.9,N
1595696615.8,286046996.8,N
1595696635.7,286046995.0,N
1595696655.5,286046997.5,N
1595696675.4,286046995.2,N
1595696695.2,286046995.2,N
1595696715.0,286046994.1,N
1595696716.0,286046994.1,N
1595696735.8,286046992.0,Y
1595696755.6,286046996.2,P
1595696775.5,286046995.0,P
1595696795.3,286046996.2,P
1595696815.1,286046995.1,Y
1595696835.9,286046999.7,P
1595696855.7,286047002.7,N
1595696875.6,286046998.2,N
1595696895.4,286046997.5,N
1595696915.2,286046993.4,Y
1595696935.1,286046995.5,P
1595696936.0,286046995.5,N
1595696955.8,286046996.5,N
1595696975.6,286046999.6,N
1595696995.5,286046999.6,N
1595697015.3,286046999.1,N
1595697035.2,286046999.4,N
1595697055.9,286046999.5,N
1595697075.7,286046999.1,N
1595697095.6,286046997.9,N
1595697115.4,286046995.6,N
1595697135.3,286046993.3,Y
1595697155.1,286046995.3,P
1595697175.8,286046997.5,N
1595697195.7,286046996.8,N
1595697215.5,286046997.7,N
1595697235.4,286046998.8,N
1595697255.2,286046998.9,N
1595697275.0,286046998.9,N
1595697275.9,286046998.9,N
1595697295.8,286046999.1,N
1595697315.6,286046997.0,N
1595697335.5,286046995.1,Y
1595697355.3,286046998.8,P
1595697375.1,286046999.5,N
1595697395.9,286046996.8,P
1595697415.7,286046995.5,Y
1595697435.5,286046999.1,P
1595697455.4,286046998.8,N
1595697475.2,286046996.5,P
1595697495.1,286047001.8,N
1595697496.0,286047001.8,N
1595697515.8,286047002.8,N
1595697535.6,286047003.8,N
1595697555.5,286047005.6,N
1595697575.3,286047007.2,N
1595697595.1,286047008.6,N
1595697615.9,286047008.3,N
1595697635.7,286047006.1,N
1595697655.6,286047003.0,N
1595697675.4,286047001.6,N
1595697695.2,286047000.7,N
1595697715.1,286046998.8,N
1595697716.0,286046998.8,N
1595697735.8,286047001.2,N
1595697755.7,286047002.1,N
1595697775.5,286047000.0,N
1595697795.3,286046998.5,N
1595697815.2,286046996.7,N
1595697835.0,286046997.8,N
1595697835.9,286046997.8,N
1595697855.8,286046996.9,N
1595697875.6,286046996.5,N
1595697895.4,286046997.8,N
1595697915.3,286046997.8,N
1595697935.1,286046995.3,N
1595697955.8,286046995.8,N
1595697975.7,286046996.2,N
1595697995.5,286046997.4,N
1595698015.4,286046996.1,N
1595698035.2,286046995.1,N
1595698055.0,286046995.5,N
1595698055.9,286046995.5,N
1595698075.8,286046995.1,N
1595698095.6,286046998.0,N
1595698115.5,286046997.4,N
1595698135.3,286046996.6,N
1595698155.1,286046998.7,N
1595698175.9,286046999.9,N
1595698195.7,286047002.1,N
1595698215.5,286047003.9,N
1595698235.4,286047004.7,N
1595698255.2,286047007.2,N
1595698275.1,286047007.6,N
1595698276.0,286047007.6,N
1595698295.8,286047007.3,N
1595698315.7,286047008.8,N
1595698335.5,286047006.8,N
1595698355.3,286047007.3,N
1595698375.2,286047007.2,N
1595698395.0,286047006.5,N
1595698395.9,286047006.5,N
1595698415.7,286047008.9,N
1595698435.6,286047008.8,N
1595698455.4,286047008.8,N
1595698475.3,286047004.7,N
1595698495.1,286047004.8,N
1595698515.8,286047008.0,N
1595698535.7,286047008.1,N
1595698555.5,286047009.9,N
1595698575.4,286047007.8,N
1595698595.2,286047006.6,N
1595698615.0,286047008.2,N
1595698615.9,286047008.2,N
1595698635.8,286047008.4,N
1595698655.6,286047009.1,N
1595698675.4,286047007.7,N
1595698695.3,286047012.4,Y
1595698715.1,286047004.8,P
1595698735.9,286047004.5,P
1595698755.7,286047007.1,P
1595698775.5,286047004.6,Y
1595698795.4,286047000.6,P
1595698815.2,286047000.1,N
1595698835.0,286047001.8,N
1595698836.0,286047001.8,N
1595698855.8,286047003.1,N
1595698875.6,286047003.1,N
1595698895.5,286047003.1,N
1595698915.3,286047002.9,N
1595698935.1,286047002.9,N
1595698955.9,286047004.8,Y
1595698975.7,286047004.4,P
1595698995.6,286047003.0,P
1595699015.4,286047003.6,P
1595699035.2,286047005.8,Y
1595699055.1,286047001.9,P
1595699056.0,286047001.9,N
1595699075.8,286047004.7,P
1595699125.7,286047004.6,E
1595699135.6,286047003.8,N
1595699155.4,286047002.5,P
1595699175.3,286046999.7,N
1595699195.1,286047000.5,N
1595699215.9,286047000.5,N
1595699235.7,286047000.0,N
1595699255.5,286047000.4,N
1595699275.4,286047000.0,N
1595699295.2,286046998.1,N
1595699315.0,286047000.5,N
1595699315.9,286047000.5,N
1595699335.8,286046999.7,N
1595699355.6,286046999.9,N
1595699375.5,286046999.8,N
1595699395.3,286047002.4,N
1595699415.1,286047001.4,N
1595699435.9,286047004.3,Y
1595699455.7,286047004.2,P
1595699475.6,286047001.4,N
1595699495.4,286047002.4,N
1595699515.2,286046999.8,N
1595699535.1,286047001.9,N
1595699536.0,286047001.9,N
1595699555.8,286047001.9,N
1595699575.7,286047001.3,N
1595699595.5,286047001.5,N
1595699615.3,286047003.5,Y
1595699635.2,286047004.2,P
1595699655.0,286047001.4,N
1595699655.9,286047001.4,N
1595699675.8,286047004.3,Y
1595699695.6,286047002.5,P
1595699715.4,286047004.4,P
1595699735.3,286047001.3,N
1595699755.1,286047000.9,N
1595699775.8,286046998.2,N
1595699795.7,286046999.4,N
1595699815.5,286046999.3,N
1595699835.4,286046998.6,N
1595699855.2,286047001.1,N
1595699875.0,286047000.1,N
1595699875.9,286047000.1,N
1595699895.8,286047002.5,N
1595699915.6,286047001.8,N
1595699935.5,286047001.5,N
1595699955.3,286047001.6,N
1595699975.1,286047004.4,N
1595699995.9,286047001.6,N
